Regional Weather Roundup
Issued by NWS

Home | Current Version | Previous Version | Graphics & Text | Print | Product List | Glossary On
Versions: 1 2 3 4 5 6 7 8 9 10 11 12 13 14 15 16 17 18 19 20 21 22 23 24 25 26 27 28
000
ASUS45 KTFX 240210
RWRMT
MONTANA REGIONAL WEATHER ROUNDUP
NATIONAL WEATHER SERVICE GREAT FALLS MT
800 PM MDT SAT JUL 23 2016

NOTE: "FAIR" INDICATES FEW OR NO CLOUDS BELOW 12000 FEET WITH NO
SIGNIFICANT WEATHER AND/OR OBSTRUCTIONS TO VISIBILITY.

MTZ001>007-043-240300-
WEST OF THE DIVIDE

CITY           SKY/WX    TMP DP  RH WIND       PRES   REMARKS
KALISPELL      SUNNY     75  43  31 W6        30.06S
MISSOULA       SUNNY     77  37  23 NW12      30.09S
BUTTE          SUNNY     71  36  27 NW10      30.16S
MULLAN PASS    SUNNY     56  43  61 NW7       30.25F
ANACONDA         N/A     73  39  29 CALM      30.14S
DEER LODGE       N/A     70  39  32 NW13      30.15S
EUREKA           N/A     75  45  33 SW3       30.07S
HAMILTON         N/A     75  43  31 NE5       30.09F
LIBBY            N/A     73  41  31 W3        30.10S
PLAINS           N/A     77  42  28 W7        30.09S
RONAN            N/A     76  43  30 W6        30.13S
$$

MTZ008-052>055-240300-
SOUTHWEST MONTANA

CITY           SKY/WX    TMP DP  RH WIND       PRES   REMARKS
BOZEMAN        CLEAR     73  43  33 NW8       30.07S
DILLON         CLEAR     69  37  30 NE10      30.09R
W YELLOWSTONE  CLOUDY    64  36  34 N5        30.23R
ENNIS          MOCLDY    75  32  20 NW9       30.15R
THREE FORKS      N/A     76  76 100 N3        30.07R
TWIN BRIDGES     N/A     77  36  22 N16       30.07R
$$

MTZ009-010-012-014-046-048-049-054-240300-
EAST SLOPES AND CENTRAL MONTANA

CITY           SKY/WX    TMP DP  RH WIND       PRES   REMARKS
CUT BANK       SUNNY     73  41  31 W17G23    30.04S
GREAT FALLS    MOCLDY    77  36  22 NW8       30.03R
MALMSTROM AFB  CLEAR     74  39  28 SW13      30.02S
HELENA         SUNNY     79  35  20 W13G20    30.06S
CHOTEAU          N/A     75  34  22 W15G22    30.07S
CONRAD           N/A     75  40  28 W8        30.07R
$$

MTZ011-013-016-021-045-047-050-051-240300-
NORTH CENTRAL MONTANA

CITY           SKY/WX    TMP DP  RH WIND       PRES   REMARKS
HAVRE          CLOUDY    79  48  33 N6        29.97S
LEWISTOWN      PTCLDY    74  44  34 NW5       30.07S
N BAR RANCH      N/A     70  45  40 NW7       30.11R
CHINOOK          N/A     79  46  31 N6        29.96S
$$

MTZ017>020-022>027-061-062-240300-
NORTHEAST MONTANA

CITY           SKY/WX    TMP DP  RH WIND       PRES   REMARKS
GLASGOW        CLEAR     74  49  41 NW10G20   29.96R
JORDAN           N/A     78  50  37 N12       29.99R
SIDNEY         CLEAR     75  52  44 NW13G22   29.93R
WOLF POINT     CLEAR     75  49  39 N12       29.96R
PLENTYWOOD       N/A     70  54  56 NW13G20   29.92R
POPLAR           N/A     73  48  40 NW13      29.95R
SCOBEY           N/A     74  58  57 CALM      29.95R
$$

MTZ028>42-056>058-240300-
SOUTHCENTRAL AND SOUTHEAST MONTANA

CITY           SKY/WX    TMP DP  RH WIND       PRES   REMARKS
BAKER          CLEAR     77  46  33 NW15      29.98R
BILLINGS       MOCLDY    79  41  25 NE12      30.03R
LIVINGSTON     CLOUDY    78  32  18 N8        30.07R
MILES CITY     CLEAR     81  43  26 N13       29.97R
EKALAKA          N/A     76  39  26 NW10      29.99R
FORSYTH          N/A     79  45  29 NW5       29.98R
LAUREL           N/A     79  38  22 CALM      30.04
ROUNDUP          N/A     76  45  33 CALM      29.95S
$$

REGIONAL REPORTS...DAKOTAS

CITY           SKY/WX    TMP DP  RH WIND       PRES   REMARKS
WILLISTON      PTCLDY    73  55  53 NW12      29.90R
MINOT          CLEAR     75  56  51 W16G24    29.80R
DICKINSON      CLEAR     73  49  42 NW14      29.91R
CROSBY           N/A     66  59  77 W14       29.89R
WATFORD CITY     N/A    N/A N/A N/A MISG        N/A
BISMARCK       CLEAR     79  56  45 NW6       29.83R
GRAND FORKS    MOCLDY    70  68  93 SW5       29.70S
FARGO          CLOUDY    76  73  91 W7        29.70S
BUFFALO SD       N/A     81  40  23 NW17      29.90R
RAPID CITY     CLEAR     79  45  29 N6        29.97R
$$

REGIONAL REPORTS...WYOMING/IDAHO/WASHINGTON

CITY           SKY/WX    TMP DP  RH WIND       PRES   REMARKS
GILLETTE       CLEAR     78  33  19 N10       30.04R
SHERIDAN       CLEAR     79  37  22 N7        30.03S
BUFFALO WY     CLEAR     77  35  21 N12       30.10R
CODY           CLEAR     77  34  20 N13       30.09R
YELLOWSTONE LA   N/A     64  20  18 VRB5      30.31R
IDAHO FALLS    CLEAR     79  33  19 S16G26    30.07F
SALMON         SUNNY     79  37  22 N12       30.01R
BOISE          SUNNY     83  32  16 N12       30.03F
SPOKANE        MOSUNNY   78  38  23 N3        30.10F
$$

REGIONAL REPORTS...ALBERTA

CITY           SKY/WX    TMP DP  RH WIND       PRES   REMARKS
EDMONTON       SUNNY     68  50  52 NW3       29.91S
CALGARY        MOSUNNY   72  45  37 W9        29.98R
LETHBRIDGE     MOSUNNY   73  46  38 W15G24    29.98R
MEDICINE HAT   MOSUNNY   75  50  41 NE5       29.94S
WATERTON GATE    N/A     68  43  40 SW12G18     N/A
MILK RIVER       N/A     75  45  33 W10         N/A
ONEFOUR          N/A     73  45  35 NW8         N/A
$$

REGIONAL REPORTS...SASKATCHEWAN

CITY           SKY/WX    TMP DP  RH WIND       PRES   REMARKS
SWIFT CURRENT  PTCLDY    61  57  88 W6        29.96R
REGINA         PTCLDY    68  57  68 W14       29.85R
SASKATOON      PTCLDY    70  52  52 NW15G23   29.85R
CYPRESS HILLS    N/A     66  46  48 N3          N/A
VAL MARIE        N/A     70  52  52 NW8         N/A
ROCKGLEN         N/A     66  54  63 NW10        N/A
ASSINIBOIA       N/A     68  54  60 NW6         N/A
$$




USA.gov is the U.S. government's official web portal to all federal, state and local government web resources and services.